Location: Rimouski
(48.4330°N, 68.5170°W)
Time: 04:48:34
(UTC-05:00)

ISS - Visible Passes

Search period start: 18 February 2019 00:00
Search period end: 28 February 2019 00:00
Orbit: 403 x 411 km, 51.6° (Epoch: 18 February)

Date Brightness Start Highest point End Pass type
(mag) Time Alt. Az. Time Alt. Az. Time Alt. Az.
23 Feb -0.7 05:11:47 10° SSE 05:13:03 12° SE 05:14:19 10° ESE visible
25 Feb -1.7 05:03:31 10° SSW 05:06:12 24° SE 05:08:54 10° E visible
26 Feb -1.2 04:13:51 13° SSE 04:14:53 15° SE 04:16:48 10° E visible
26 Feb -3.6 05:47:41 10° WSW 05:50:57 73° SSE 05:54:13 10° ENE visible
27 Feb -3.0 04:57:24 19° SW 04:59:27 46° SSE 05:02:37 10° ENE visible
